Regional Weather Roundup
Issued by NWS

Home | Current Version | Previous Version | Text Only | Print | Product List | Glossary Off
Versions: 1 2 3 4 5 6 7 8 9 10 11 12 13 14 15 16 17 18 19 20 21 22 23 24 25 26 27 28 29 30 31 32 33 34 35 36 37 38 39 40 41 42 43 44 45 46 47 48 49 50

000
ASUS43 KLOT 242003
RWRIL

ILLINOIS REGIONAL WEATHER ROUNDUP
NATIONAL WEATHER SERVICE CHICAGO/ROMEOVILLE IL
300 PM CDT SUN JUL 24 2016

NOTE: "FAIR" INDICATES FEW OR NO CLOUDS BELOW 12,000 FEET WITH NO
SIGNIFICANT WEATHER AND/OR OBSTRUCTIONS TO VISIBILITY.

* THESE STATIONS ARE NOT UNDER NWS QUALITY CONTROL. THEY ALSO MAY NOT
  REPORT WEATHER SUCH AS PRECIPITATION OR FOG.

ILZ001-002-007-009-015-016-024-242100-
NORTHWEST ILLINOIS

CITY           SKY/WX    TMP DP  RH WIND       PRES   REMARKS
MOLINE         CLOUDY    90  78  68 W10       29.86S HX 104
STERLING*      SUNNY     91  80  70 SW10      29.86F HX 109
SAVANNA*       PTSUNNY   90  81  74 SW8       29.85F HX 108
$$

ILZ003-004-008-010-011-017-018-242100-
NORTH CENTRAL ILLINOIS

CITY           SKY/WX    TMP DP  RH WIND       PRES   REMARKS
ROCKFORD       PTSUNNY   94  77  57 SW17      29.86F HX 108
FREEPORT*      PTSUNNY   91  80  70 SW13      29.88S HX 108
ROCHELLE*      PTSUNNY   88  82  83 SW8       29.87F THUNDER HX 107
DE KALB*       PTSUNNY   91  80  70 SW15G22   29.88F HX 109
$$

ILZ005-006-012>014-019>023-242100-
NORTHEAST ILLINOIS

CITY           SKY/WX    TMP DP  RH WIND       PRES   REMARKS
CHICAGO-OHARE  PTSUNNY   92  77  61 SW17G23   29.84F HX 105
CHICAGO-MIDWAY PTSUNNY   93  78  61 SW17G26   29.85F HX 108
AURORA         MOSUNNY   91  80  70 SW12      29.87S THUNDER HX 109
LANSING*       MOSUNNY   89  77  67 SW18G25   29.89F HX 102
WAUKEGAN       MOSUNNY   94  77  57 SW15G26   29.82F HX 108
DUPAGE AIRPORT CLOUDY    92  79  65 S15       29.86S HX 108
WHEELING       MOSUNNY   93  77  59 SW15G26   29.85F HX 107
MORRIS*        PTSUNNY   91  81  73 SW9       29.86S HX 110
NORTHERLY ISL    N/A     90  75  61 S16         N/A  HX 100
$$

LMZ740>746-242100-
SOUTHERN LAKE MICHIGAN

STATION/POSITION SKY/WX   TEMP    WIND        PRES    VSBY  WAVE
                          AIR SEA DIR/SP/G                  HT/PER
                          (F)     (DEG/KT/KT) (MB)    (MI)  (FT/S)
SOUTHERN BUOY              74 72  150/ 19/ 23 1010.0          3/ 5
WILMETTE HARBOR            76 63  210/  8/ 12   N/A           1/ 2
HARRISON CRIB              87     190/ 21/ 23   N/A
BURNHAM HARBOR             90     200/ 15/ 20   N/A
CALUMET HARBOR             88     180/ 12/ 16 1011.2F
BURNS HARBOR               87     200/ 13/ 19 1012.9F
MICHIGAN CITY              86     160/ 14/ 17   N/A
MICHIGAN CITY 6N           82 74  200/ 10/ 16   N/A           2/ 2
ST. JOSEPH                 79 74  180/  8/ 10 1011.8F         2/ 3
$$

ILZ025>027-034>036-040-047-049-050-058-095>099-242100-
WEST-CENTRAL ILLINOIS

CITY           SKY/WX    TMP DP  RH WIND       PRES   REMARKS
QUINCY         CLOUDY    95  78  58 SW10      29.89F HX 111
GALESBURG*     PTSUNNY   91  79  68 SW7       29.89S HX 108
MACOMB*        CLOUDY    92  80  69 SW9       29.90S HX 110
JACKSONVILLE*  MOSUNNY   92  81  69 S10       29.90S HX 112
PITTSFIELD*    SUNNY     93  81  66 S9        29.91F HX 113
$$

ILZ028>032-037-038-041>044-048-051>054-059>061-242100-
CENTRAL ILLINOIS

CITY           SKY/WX    TMP DP  RH WIND       PRES   REMARKS
PONTIAC        CLOUDY    90  83  78 S13G20    29.90S HX 112
BLOOMINGTON    CLOUDY    88  81  79 S17       29.92F HX 106
DECATUR        CLOUDY    92  78  63 S14       29.93F HX 107
PEORIA         PTSUNNY   91  81  72 S17G23    29.88S HX 111
LACON*         MOSUNNY   92  80  67 SW8G17    29.87R HX 109
LINCOLN*       CLOUDY    89  82  79 S7        29.91F HX 109
SPRINGFIELD    MOSUNNY   92  81  70 S10       29.91F HX 112
TAYLORVILLE    MOSUNNY   91  81  74 NW9       29.93F HX 110
$$

ILZ033-039-045-046-055>057-062-063-242100-
EAST-CENTRAL ILLINOIS

CITY           SKY/WX    TMP DP  RH WIND       PRES   REMARKS
CHAMPAIGN      CLOUDY    90  78  68 S10       29.95F HX 104
MATTOON        SUNNY     90  76  63 S8        29.95F HX 101
PARIS*         PTSUNNY   89  81  78 S5        29.97S HX 108
$$

ILZ079-100>102-242100-
SOUTHWEST ILLINOIS

CITY           SKY/WX    TMP DP  RH WIND       PRES   REMARKS
BELLEVILLE     SUNNY     94  82  66 S7        29.92F HX 116
CAHOKIA*       SUNNY     97  76  50 S8        29.91F HX 110
SPARTA*        PTSUNNY   92  79  65 SE7       29.96S HX 108
$$

ILZ064>066-069>071-074>076-080>082-084>086-088>090-092>094-242100-
SOUTH-CENTRAL ILLINOIS

CITY           SKY/WX    TMP DP  RH WIND       PRES   REMARKS
CARBONDALE     SUNNY     92  74  55 SW7       29.96F HX 101
CAIRO*         PTSUNNY   90  77  66 E3        29.96F HX 102
EFFINGHAM*     MOSUNNY   92  79  65 S9        29.97S HX 108
MARION         PTSUNNY   93  75  55 SW12      29.97F HX 104
MT. VERNON     CLOUDY    95  75  52 SW8       29.96F HX 107
CENTRALIA*     CLOUDY    93  78  61 SW7       29.95S HX 108
SALEM*         SUNNY     93  76  57 SW9       29.96S HX 106
METROPOLIS*    MOSUNNY   89  77  66 S3        29.98S HX 102
$$

ILZ067-068-072-073-078-083-087-091-242100-
SOUTHEAST ILLINOIS

CITY           SKY/WX    TMP DP  RH WIND       PRES   REMARKS
LAWRENCEVILLE  MOSUNNY   91  78  65 S9        29.97F HX 106
FLORA*         MOSUNNY   93  78  62 S10       29.96F HX 108
FAIRFIELD*     MOSUNNY   90  77  65 S3        29.95S HX 103
HARRISBURG*    MOSUNNY   91  78  65 SW6       29.97F HX 106
ROBINSON*      MOSUNNY   92  78  65 S8        29.96F HX 107
CARMI*         SUNNY     90  79  68 S5        29.96F HX 106
$$

ABBREVIATIONS USED IN REMARKS
   TC - TEMPERATURE IN CELSIUS
  WCI - WIND CHILL INDEX
   HX - HEAT INDEX
  VSB - VISIBILITY
$$




USA.gov is the U.S. government's official web portal to all federal, state and local government web resources and services.